{"data":{"norad_id":43022,"epoch":"2026-09-20T04:30:00.220320Z","epoch_age_seconds":78370,"freshness":"FRESH","line1":"1 43022U 17074A   26263.18750255  .00011193  00000+0  24191-3 0  9996","line2":"2 43022  97.4911  15.5226 0003252 194.4284 165.6871 15.44675960488921","mean_motion":15.4467596,"eccentricity":0.0003252,"inclination_deg":97.4911,"raan_deg":15.5226,"arg_perigee_deg":194.4284,"mean_anomaly_deg":165.6871,"bstar":0.00024191,"rev_number":48892,"period_min":93.223435677733,"perigee_km":430.11560200424,"apogee_km":434.54512997908,"semimajor_km":6810.4673659917,"source":"CELESTRAK","updated_at":"2026-09-20T09:00:14.265379Z"}}